Temp
46 44 42 45 46 45 43 41 43 43 48 46 46 46 51 44 40 38 38 39 39 40 42 42 41 41 41 42 43 43 44 45 48 48 48 48 45 45 45 45 45 46 46 48
43 40 48 47 46 45 42 40 40 44 46 45 44 44 47 43 41 41 39 38 39 39 40 40 40 39 39 39 40 41 42 43 45 46 45 46 44 43 44 44 44 44 44 44
41 46 47 47 42 42 40 40 38 42 42 42 40 41 40 38 39 39 39 39 39 39 38 38 38 37 38 37 37 40 41 41 42 44 45 45 44 43 43 42 42 41 43 43
42 46 46 42 42 43 37 43 43 41 39 35 40 33 39 37 35 36 36 36 37 38 38 38 37 37 37 37 38 39 39 41 41 43 42 41 40 38 38 39 39 40 40 40
42 41 41 40 43 45 41 42 41 39 37 35 35 33 37 36 36 34 35 35 36 37 37 37 36 37 37 37 36 37 39 39 39 40 41 40 37 37 38 38 38 38 38 38
42 43 44 45 42 44 43 40 38 35 34 27 36 36 35 36 39 34 36 36 36 36 36 36 37 37 36 36 36 37 37 36 37 38 38 38 37 36 36 36 36 36 36 36
38 41 43 44 40 41 39 38 29 27 26 27 33 31 38 41 39 39 38 36 36 36 35 35 35 35 35 35 36 37 36 34 35 36 36 36 35 35 35 34 34 34 34 34
33 32 42 45 43 40 37 39 30 23 23 27 30 28 38 37 36 37 39 38 37 35 35 35 35 35 35 35 35 35 34 34 34 34 34 34 34 34 34 34 34 33 33 33
33 35 40 42 43 45 38 35 39 28 15 22 31 34 39 35 34 34 34 35 35 35 35 35 35 35 35 34 34 34 34 33 33 33 33 33 33 33 32 32 33 33 33 34
41 34 38 39 42 40 40 43 33 30 22 19 28 30 35 34 35 32 31 34 35 35 34 35 35 35 35 35 34 34 34 33 33 33 33 33 32 32 32 33 32 32 32 32
42 40 34 39 37 37 36 35 34 36 32 24 20 29 37 39 37 33 34 36 36 35 36 36 36 35 35 34 33 33 33 33 33 33 33 33 32 32 32 32 31 31 31 31
43 39 29 34 36 37 35 37 37 32 26 25 26 33 36 37 38 37 36 37 36 38 37 36 36 35 34 34 33 33 33 33 34 33 32 33 32 32 31 30 30 30 29 29
43 36 26 31 34 33 33 34 35 33 29 24 25 29 36 34 34 35 35 35 37 36 35 35 34 35 34 33 33 33 33 33 34 32 32 32 31 31 30 29 29 29 28 27
50 36 35 36 35 35 30 32 33 36 24 30 34 36 33 35 36 34 35 35 35 36 36 35 33 34 34 33 34 33 33 33 33 32 31 31 30 30 29 28 27 26 26 25
43 34 32 34 35 35 34 33 32 33 38 33 38 34 37 37 37 38 37 35 34 35 35 34 34 33 32 32 33 33 33 32 32 31 31 30 30 28 27 25 24 24 23 23
37 33 32 29 32 33 30 34 33 35 35 35 34 32 40 40 36 35 35 35 34 35 35 35 35 33 33 34 33 34 33 32 31 30 30 29 27 24 22 22 22 21 20 20
34 31 31 31 27 29 27 30 32 32 32 37 30 40 33 35 36 35 34 35 35 35 35 35 34 34 34 33 35 33 33 30 28 26 24 23 22 21 20 20 19 19 17 17
31 31 31 19 24 21 28 27 31 34 33 30 28 25 31 34 33 34 34 34 33 35 35 35 34 33 33 33 32 32 29 27 26 24 21 20 20 18 17 16 16 15 15 14
33 31 23 22 21 26 25 28 28 29 30 30 33 31 30 29 29 28 31 32 34 34 34 34 34 33 32 32 31 28 25 25 24 23 22 19 18 15 15 12 12 13 12 12
30 31 32 20 20 20 25 29 31 34 24 25 31 28 23 27 21 27 31 32 33 32 33 33 33 32 31 30 28 25 23 21 22 23 22 19 16 11 10 12 10 10 9 11
23 23 27 22 21 24 27 26 32 24 28 25 24 25 26 26 30 32 32 30 32 32 32 32 30 30 30 27 23 23 21 21 22 19 17 15 13 10 10 8 9 7 5 8
24 23 22 22 20 20 28 29 28 32 28 28 28 29 28 31 32 32 32 32 32 31 31 32 28 29 29 24 22 21 20 20 17 15 13 11 7 10 8 2 4 2 2 1
24 26 24 27 26 28 33 31 34 33 30 29 31 31 31 31 31 32 31 30 30 30 30 29 27 27 26 21 21 21 20 16 13 11 7 5 5 6 5 1 3 5 2 1
25 28 24 25 26 27 31 32 32 32 33 32 32 31 30 31 30 30 29 29 28 25 25 23 20 20 21 17 19 21 15 13 8 6 5 5 4 5 4 7 6 3 3 2
27 27 21 21 26 28 31 31 33 32 32 31 30 31 30 29 28 28 26 25 25 24 22 19 21 21 23 16 14 11 11 10 7 5 6 5 4 3 6 6 7 7 6 5
27 25 24 22 31 32 33 36 34 32 31 29 29 27 26 27 28 27 25 24 22 22 17 17 18 18 15 10 9 8 7 8 6 5 5 5 5 5 6 5 5 11 15 17
MSLP
1019.84 1020.41 1020.39 1020.06 1020.29 1020.57 1020.87 1021.29 1021.04 1020.45 1020.10 1020.32 1020.56 1021.16 1021.49 1023.10 1024.36 1025.62 1026.60 1027.23 1027.62 1027.81 1028.02 1027.92 1027.62 1027.40 1027.08 1026.49 1025.92 1025.78 1025.77 1025.65 1024.85 1024.67 1024.73 1025.13 1026.07 1026.80 1027.17 1027.60 1027.77 1027.45 1027.37 1026.96
1020.57 1020.22 1019.67 1020.05 1020.65 1020.89 1021.21 1021.55 1021.35 1020.86 1020.60 1020.95 1021.10 1021.63 1022.04 1023.35 1024.49 1025.36 1026.38 1027.09 1027.43 1027.97 1028.35 1028.51 1028.43 1028.06 1027.82 1027.79 1027.58 1026.93 1026.48 1026.46 1026.08 1025.96 1026.39 1026.75 1027.28 1027.91 1028.16 1028.32 1028.30 1028.55 1028.48 1028.25
1020.00 1019.43 1019.26 1020.07 1020.80 1021.24 1021.39 1021.48 1021.46 1021.33 1021.30 1021.43 1021.77 1021.90 1022.35 1023.80 1024.88 1025.84 1026.58 1027.20 1027.89 1028.02 1028.15 1028.35 1028.33 1028.39 1028.33 1028.08 1028.55 1027.94 1027.50 1027.20 1026.97 1026.87 1026.92 1027.32 1027.67 1028.31 1028.66 1029.03 1029.19 1029.48 1029.31 1029.26
1020.13 1019.35 1019.62 1020.06 1020.43 1020.76 1021.22 1020.90 1021.25 1021.70 1022.19 1022.35 1022.25 1022.46 1022.34 1023.42 1024.81 1025.90 1026.74 1027.43 1027.96 1028.21 1028.39 1028.70 1029.07 1029.03 1028.53 1028.18 1027.59 1027.70 1027.75 1027.67 1027.82 1027.80 1027.75 1027.88 1028.37 1028.81 1029.97 1030.15 1030.47 1030.41 1030.37 1030.34
1019.09 1019.30 1019.61 1019.84 1019.77 1020.34 1020.72 1020.92 1021.60 1022.04 1022.54 1022.86 1023.00 1023.53 1022.06 1023.11 1024.10 1025.20 1026.71 1027.69 1028.27 1028.53 1028.94 1029.40 1029.75 1029.97 1029.80 1029.35 1028.98 1029.04 1028.98 1028.84 1028.83 1028.61 1028.72 1028.97 1029.56 1030.20 1030.60 1030.78 1030.81 1031.03 1031.11 1031.10
1019.06 1018.89 1019.04 1018.97 1019.52 1019.89 1020.82 1021.44 1022.32 1023.01 1023.45 1023.53 1022.31 1022.73 1022.18 1022.43 1022.32 1024.02 1025.18 1026.00 1027.41 1028.31 1028.69 1029.16 1029.79 1029.99 1030.21 1030.23 1029.50 1029.37 1029.56 1029.83 1029.82 1029.76 1029.83 1029.91 1030.03 1030.39 1030.55 1030.94 1031.13 1031.48 1031.73 1031.81
1019.11 1018.78 1018.55 1018.71 1019.59 1020.31 1020.71 1021.55 1022.99 1023.94 1024.08 1023.00 1022.38 1022.86 1021.15 1021.17 1022.18 1023.33 1024.59 1025.97 1027.02 1027.70 1027.96 1028.58 1028.97 1029.41 1029.59 1030.58 1030.50 1030.08 1030.29 1030.44 1030.50 1030.59 1030.56 1030.63 1030.86 1030.97 1031.19 1031.49 1031.80 1031.89 1031.96 1032.16
1018.88 1018.62 1018.04 1018.07 1018.22 1019.12 1020.27 1020.56 1021.49 1022.53 1023.64 1023.18 1022.76 1021.89 1020.35 1020.95 1022.05 1023.07 1023.91 1025.16 1026.39 1027.44 1028.07 1028.65 1029.11 1029.45 1029.57 1030.11 1030.62 1030.39 1030.46 1030.64 1030.97 1031.03 1031.24 1031.22 1031.26 1031.46 1031.89 1032.03 1032.09 1032.29 1032.48 1032.71
1017.67 1017.67 1017.38 1017.57 1017.78 1018.18 1019.88 1020.22 1020.24 1021.77 1023.77 1023.41 1021.64 1020.88 1020.39 1021.40 1022.32 1023.30 1024.14 1024.98 1025.75 1026.45 1027.24 1028.29 1028.92 1029.28 1029.49 1029.84 1030.39 1030.42 1030.68 1030.78 1030.98 1031.45 1031.57 1031.52 1031.52 1031.72 1032.03 1032.42 1032.33 1032.40 1032.82 1032.89
1015.77 1017.00 1017.46 1017.69 1017.83 1018.34 1018.41 1018.75 1020.24 1021.15 1022.50 1022.45 1021.22 1020.71 1020.00 1020.97 1021.77 1023.25 1024.09 1024.47 1025.35 1026.04 1026.80 1027.41 1028.11 1028.72 1029.16 1029.61 1030.07 1030.20 1030.45 1030.70 1031.07 1031.42 1031.64 1031.66 1031.99 1032.11 1032.12 1032.08 1032.41 1032.65 1032.88 1032.78
1015.37 1016.01 1017.88 1017.97 1017.68 1017.34 1018.48 1018.71 1019.47 1020.02 1020.71 1021.02 1021.02 1019.55 1018.45 1019.34 1020.40 1021.73 1022.78 1023.36 1024.08 1024.84 1025.59 1026.44 1027.19 1027.85 1028.60 1029.32 1029.83 1030.19 1030.43 1030.68 1030.87 1031.16 1031.50 1031.55 1031.79 1032.02 1031.96 1032.10 1032.37 1032.54 1032.85 1032.80
1014.66 1015.27 1017.02 1017.15 1017.18 1017.21 1017.33 1017.51 1017.90 1019.08 1020.24 1020.50 1020.46 1018.55 1018.38 1018.97 1019.65 1020.48 1021.27 1022.31 1023.29 1024.28 1024.88 1025.49 1026.18 1027.04 1028.03 1029.01 1029.48 1029.61 1029.91 1030.28 1030.49 1030.74 1031.06 1031.34 1031.64 1031.93 1032.06 1032.23 1032.44 1032.58 1032.65 1032.83
1013.94 1014.92 1016.47 1017.16 1017.59 1017.66 1017.47 1017.36 1017.42 1018.10 1018.97 1019.36 1020.16 1018.37 1018.97 1019.33 1019.89 1020.39 1020.95 1021.65 1022.41 1023.33 1024.20 1024.73 1025.80 1026.58 1027.28 1028.06 1028.82 1029.07 1029.39 1029.61 1030.11 1030.54 1030.73 1030.93 1031.24 1031.60 1031.77 1031.99 1032.12 1032.41 1032.70 1032.98
1012.44 1013.62 1014.04 1013.99 1014.75 1015.44 1017.00 1016.89 1017.13 1017.21 1018.23 1018.21 1017.24 1017.87 1018.83 1019.33 1019.72 1020.44 1020.76 1021.19 1021.85 1022.60 1023.59 1024.12 1025.21 1025.64 1026.51 1027.22 1027.77 1028.27 1028.75 1029.13 1029.57 1030.08 1030.36 1030.63 1030.96 1031.27 1031.48 1031.83 1032.19 1032.42 1032.54 1032.64
1012.46 1013.38 1014.10 1014.28 1014.42 1014.74 1015.23 1015.94 1016.55 1016.67 1016.33 1016.75 1016.33 1017.06 1017.56 1018.07 1018.68 1019.21 1019.75 1020.64 1021.33 1021.86 1023.15 1023.92 1024.65 1025.04 1025.72 1026.53 1026.99 1027.57 1028.10 1028.58 1029.04 1029.57 1029.96 1030.20 1030.64 1030.99 1031.55 1031.88 1032.24 1032.40 1032.46 1032.61
1013.52 1013.75 1014.46 1015.21 1015.33 1015.30 1015.51 1015.24 1015.81 1016.13 1016.39 1016.21 1016.28 1016.43 1016.71 1017.14 1018.12 1019.15 1019.68 1020.30 1020.96 1021.40 1022.54 1023.07 1023.81 1024.31 1024.89 1025.35 1025.90 1026.66 1027.29 1027.88 1028.55 1029.06 1029.24 1029.75 1030.39 1030.89 1031.46 1031.95 1032.13 1032.35 1032.44 1032.57
1013.95 1014.35 1015.10 1015.53 1016.36 1016.58 1016.35 1014.51 1015.57 1015.55 1015.75 1015.83 1016.28 1015.56 1017.21 1017.75 1018.26 1018.73 1019.46 1019.78 1020.21 1021.27 1021.89 1022.60 1023.01 1023.43 1023.85 1024.36 1024.87 1025.78 1026.43 1027.23 1027.97 1028.54 1029.08 1029.56 1030.23 1030.84 1031.35 1031.87 1032.16 1032.13 1032.02 1032.17
1013.59 1014.55 1015.18 1016.54 1017.10 1016.11 1014.80 1014.83 1014.80 1015.28 1015.66 1015.98 1016.34 1016.73 1017.04 1017.55 1018.07 1018.52 1018.87 1019.41 1020.32 1020.92 1021.52 1022.06 1022.42 1022.98 1023.33 1023.67 1024.43 1025.22 1026.18 1026.92 1027.52 1028.20 1028.86 1029.58 1030.24 1030.89 1031.42 1031.81 1031.88 1031.84 1031.81 1032.01
1013.67 1014.13 1015.54 1016.24 1016.53 1015.33 1014.77 1015.10 1015.21 1015.44 1015.57 1016.01 1016.64 1017.13 1017.75 1018.34 1018.82 1019.09 1019.18 1019.47 1019.94 1020.51 1020.90 1021.42 1022.03 1022.51 1022.80 1023.20 1023.94 1024.84 1025.88 1026.47 1027.18 1027.77 1028.50 1029.29 1029.94 1030.77 1031.36 1031.56 1031.66 1031.63 1031.79 1032.05
1014.65 1014.24 1014.60 1015.90 1015.91 1015.28 1014.08 1014.22 1014.46 1014.91 1015.74 1015.68 1016.22 1017.17 1018.22 1018.78 1019.32 1018.88 1018.81 1019.29 1019.89 1020.30 1020.87 1021.35 1021.81 1022.35 1022.71 1023.04 1023.84 1024.78 1025.53 1026.18 1026.76 1027.20 1027.85 1028.90 1029.77 1030.56 1031.08 1031.17 1031.40 1031.34 1031.62 1031.67
1015.19 1015.00 1014.63 1014.97 1015.23 1014.85 1014.10 1014.39 1014.84 1015.60 1015.62 1015.44 1016.26 1017.21 1018.19 1018.70 1018.32 1018.32 1018.77 1019.56 1019.85 1020.31 1020.80 1021.32 1021.92 1022.30 1022.43 1022.92 1023.78 1024.63 1025.36 1025.84 1025.86 1026.82 1027.75 1028.80 1029.60 1030.29 1030.67 1030.98 1031.09 1031.16 1031.36 1031.43
1013.68 1014.41 1014.87 1015.13 1015.26 1014.77 1013.83 1015.07 1014.99 1014.33 1015.15 1015.54 1016.39 1016.82 1017.45 1017.68 1018.12 1018.61 1018.96 1019.51 1019.91 1020.37 1020.80 1021.06 1021.90 1022.35 1022.21 1022.87 1023.62 1024.36 1024.98 1024.73 1025.71 1026.64 1027.74 1028.69 1029.47 1030.02 1030.41 1030.71 1030.86 1030.94 1031.07 1031.25
1014.21 1013.19 1013.38 1013.77 1013.36 1013.23 1013.44 1013.63 1013.73 1013.85 1014.52 1015.66 1016.12 1016.61 1017.06 1017.60 1018.01 1018.31 1018.88 1019.48 1019.86 1020.12 1020.47 1020.77 1021.64 1021.89 1021.94 1022.55 1023.10 1024.06 1024.03 1024.75 1025.74 1026.84 1027.89 1028.72 1029.33 1029.68 1030.00 1030.35 1030.50 1030.53 1030.58 1030.68
1013.56 1013.25 1013.41 1013.77 1013.73 1013.43 1013.54 1013.75 1013.98 1014.24 1014.47 1015.06 1015.66 1016.32 1016.96 1017.44 1017.83 1018.36 1019.09 1019.65 1019.97 1019.93 1020.33 1020.76 1021.70 1022.14 1022.10 1022.47 1022.91 1023.24 1023.99 1024.79 1025.84 1026.82 1027.73 1028.45 1029.01 1029.31 1029.55 1029.67 1029.77 1029.85 1029.88 1030.12
1012.32 1012.93 1013.35 1013.73 1013.74 1013.85 1013.66 1013.70 1013.82 1014.27 1014.84 1015.32 1015.79 1016.35 1016.75 1017.23 1017.75 1018.29 1018.84 1019.60 1019.72 1019.76 1020.13 1020.78 1021.50 1021.74 1021.71 1022.11 1022.86 1023.48 1023.94 1024.69 1025.84 1026.70 1027.37 1028.02 1028.61 1028.92 1028.94 1029.01 1029.02 1028.90 1029.08 1029.22
1011.80 1012.28 1012.55 1012.22 1012.20 1012.19 1012.43 1012.60 1013.20 1014.19 1014.52 1015.08 1015.79 1016.45 1016.76 1017.09 1017.65 1018.29 1018.59 1018.97 1019.47 1019.80 1020.41 1020.86 1021.15 1021.55 1021.60 1022.32 1023.02 1023.83 1024.21 1024.81 1025.73 1026.65 1027.28 1027.68 1028.02 1028.30 1028.32 1028.51 1028.54 1028.34 1027.92 1027.58
Wind_Speed
2 4 9 13 9 3 6 4 6 2 3 3 6 6 7 4 6 6 5 5 5 6 5 8 9 10 10 11 11 12 11 11 6 5 6 8 9 8 10 10 15 15 14 15
5 8 8 5 5 4 4 4 6 5 3 2 5 10 7 1 3 5 9 7 7 5 5 7 9 10 12 11 12 12 12 11 10 5 5 5 7 9 9 9 13 15 15 15
8 4 8 8 5 6 5 7 5 6 1 2 2 8 4 1 2 4 4 5 4 6 7 4 6 7 8 11 11 10 10 10 10 8 7 6 6 6 7 9 10 12 14 14
6 2 6 4 6 8 6 9 7 5 4 5 1 6 5 3 3 4 5 5 6 6 4 3 4 6 6 6 5 7 8 10 10 9 11 13 9 10 6 8 8 9 13 14
8 8 5 5 8 7 6 6 7 4 4 2 3 0 8 3 6 9 7 6 6 6 5 5 4 3 4 5 6 7 9 11 10 10 10 10 12 8 7 7 10 10 10 12
4 1 7 8 3 6 9 7 6 5 3 2 9 9 5 6 7 4 11 13 11 8 6 6 3 3 3 4 5 7 9 10 10 10 10 11 12 9 8 8 8 7 7 8
1 5 3 4 6 3 1 6 1 2 1 6 3 3 8 4 2 2 14 12 10 10 9 8 8 6 6 4 3 6 7 9 7 9 9 10 11 11 12 9 7 7 6 6
7 6 12 8 8 10 8 7 7 9 5 3 2 7 8 2 1 2 7 13 12 10 8 8 8 6 6 5 4 6 6 8 6 8 9 8 8 7 7 7 7 6 6 5
8 7 0 3 4 7 7 7 4 7 2 3 6 4 3 1 1 2 8 13 15 13 12 10 7 7 6 6 6 7 7 6 6 6 6 7 7 8 8 7 7 6 5 4
7 3 2 3 3 2 5 7 3 3 2 5 4 4 6 7 9 6 9 14 14 10 9 10 10 8 6 6 6 7 7 7 7 6 5 6 7 7 7 6 7 6 5 5
6 5 1 4 8 11 5 4 3 4 5 6 3 6 7 9 10 15 14 16 16 15 14 12 10 8 8 6 7 7 7 8 8 7 6 7 7 6 6 6 5 5 5 6
9 5 5 8 1 1 2 8 8 6 6 3 2 7 1 4 8 12 13 13 12 13 13 12 12 10 9 9 8 9 8 8 8 8 6 6 6 5 5 5 5 5 5 5
11 4 3 5 2 2 6 6 5 6 4 9 5 6 0 4 4 7 10 13 13 12 11 10 9 11 11 10 9 10 9 10 8 7 7 6 6 5 5 5 5 4 4 3
14 6 11 17 7 8 8 8 7 8 5 7 14 9 6 6 8 8 9 7 8 9 11 9 8 11 10 10 11 10 10 9 8 8 7 7 6 6 5 4 4 3 3 4
7 8 5 4 5 7 7 9 14 15 16 11 12 14 8 13 13 13 9 7 9 10 9 8 10 10 10 10 10 9 9 9 8 8 8 7 6 6 5 4 3 3 3 3
2 3 6 5 1 1 4 10 12 14 10 11 5 11 6 7 6 6 9 9 9 8 8 10 9 8 11 13 12 10 10 10 8 9 9 7 6 6 5 4 3 3 3 1
8 6 6 10 3 4 8 12 15 6 6 11 11 17 7 5 7 8 9 10 9 7 8 9 9 9 9 11 11 12 11 8 9 7 6 7 7 6 5 4 3 2 2 2
8 7 2 4 2 9 1 4 1 11 6 5 2 4 8 6 5 4 6 8 8 8 8 7 6 6 7 6 7 6 7 8 8 8 8 7 7 5 5 4 2 1 1 2
1 7 5 6 5 6 3 6 10 10 10 11 12 6 5 4 4 4 4 5 6 7 7 7 6 6 5 7 6 6 6 6 7 9 9 8 7 6 5 4 3 2 1 2
1 2 5 4 6 10 4 2 3 5 6 8 10 7 8 7 3 5 6 5 8 7 5 7 7 5 6 6 7 7 7 7 10 9 9 8 7 6 5 4 4 3 1 3
4 2 9 5 4 6 5 4 4 6 6 4 6 5 8 6 5 5 6 5 5 7 9 5 7 8 9 7 7 7 6 11 7 7 7 7 6 6 4 4 2 2 2 2
8 9 4 3 3 8 6 5 10 5 2 5 5 7 8 5 6 6 7 6 7 9 8 9 7 8 7 6 7 7 10 6 8 8 8 7 6 4 4 4 2 1 1 3
2 5 7 10 6 0 14 3 5 4 7 5 6 6 8 9 7 6 4 6 7 7 8 6 8 8 6 7 9 8 6 9 9 8 7 5 5 4 5 4 3 2 1 2
5 3 2 4 3 3 11 2 3 4 6 6 5 7 8 7 6 6 4 6 6 5 8 6 6 7 8 7 8 8 8 9 9 7 7 6 5 4 4 3 3 2 2 3
4 8 6 1 1 1 5 7 6 7 4 5 4 7 9 7 6 7 6 7 7 7 4 5 8 8 11 6 6 5 8 9 8 6 5 5 4 4 4 4 4 4 4 5
6 7 5 5 10 6 7 12 10 8 9 9 8 5 5 7 9 6 7 6 4 6 3 4 7 7 5 4 6 6 6 8 8 6 5 5 4 4 3 3 4 8 11 13
Wind_Direction
14 117 207 197 196 123 137 169 216 227 257 173 225 255 262 134 103 137 134 114 93 63 20 23 23 16 15 33 41 34 34 13 32 55 74 70 71 57 51 43 35 37 32 33
54 227 210 128 150 156 138 165 243 291 222 130 276 260 261 85 156 174 160 153 142 111 55 29 22 25 29 28 23 35 42 36 44 44 61 66 79 65 67 57 53 44 43 41
169 217 141 143 154 167 198 196 190 213 38 214 357 278 228 60 77 93 120 127 129 138 122 93 62 47 39 42 16 32 42 53 53 63 94 94 84 76 61 48 52 41 46 45
232 246 159 170 194 151 204 193 174 173 123 234 137 275 289 184 165 177 168 163 161 154 137 107 64 48 50 56 71 67 57 62 58 65 78 82 89 93 77 71 63 52 45 45
234 170 176 184 206 162 227 137 163 140 156 111 232 301 263 153 227 194 189 185 189 173 152 118 95 62 37 42 46 40 56 59 56 70 85 92 91 90 90 75 74 61 52 48
240 193 167 196 119 165 149 80 55 56 108 258 215 180 259 204 211 157 178 181 185 179 160 144 131 127 83 50 68 66 72 60 54 69 78 96 106 108 97 82 76 61 54 45
183 214 194 146 92 54 121 115 43 334 287 227 48 142 247 236 180 179 188 178 176 183 167 168 173 169 142 126 92 92 90 87 80 87 88 91 92 90 88 83 79 72 58 47
168 267 168 189 179 173 190 168 168 206 199 233 45 222 245 152 116 247 169 168 175 176 176 181 185 180 167 154 140 118 114 106 93 95 91 87 93 94 91 91 86 75 69 57
167 270 148 150 150 142 187 203 167 108 41 64 218 276 271 143 193 98 158 165 181 182 182 187 184 188 173 168 173 152 138 131 123 116 116 106 102 100 104 99 93 85 71 61
196 153 222 169 117 36 177 158 101 2 205 260 266 257 230 205 201 180 186 189 191 184 177 187 191 189 180 181 173 167 167 150 150 140 129 122 123 122 119 107 95 88 76 58
151 151 194 126 211 178 151 182 77 132 158 181 228 246 212 191 179 193 200 197 191 186 189 192 189 184 184 177 179 177 171 163 165 164 161 148 144 125 106 96 91 82 66 38
200 138 167 202 293 344 224 189 162 166 214 259 171 245 102 234 200 187 196 190 187 193 193 189 189 177 180 189 185 185 182 179 183 176 166 151 137 134 123 113 98 80 64 47
177 196 89 341 353 342 217 196 137 102 72 195 172 252 157 249 215 213 185 189 190 187 189 189 176 191 194 192 189 193 191 194 183 170 165 163 163 156 138 124 112 90 78 79
164 165 197 224 192 143 191 189 180 164 162 186 228 244 206 215 202 206 212 193 179 185 197 189 187 200 197 193 197 196 200 196 178 177 176 176 174 166 151 134 128 112 81 53
161 216 174 208 192 162 182 178 183 203 215 201 233 228 195 199 200 205 201 158 171 193 194 189 205 206 199 197 201 201 204 188 183 183 189 188 167 153 147 143 124 110 84 56
342 210 155 198 252 196 206 214 188 204 219 242 251 256 204 216 104 155 182 171 190 188 186 202 210 199 201 203 202 199 202 197 178 194 198 170 161 150 160 163 160 159 129 77
154 152 157 222 150 122 255 211 194 178 188 194 208 242 157 191 193 191 197 187 188 187 207 206 206 207 200 196 195 199 200 177 189 189 174 167 160 165 170 171 185 156 77 21
148 147 162 127 159 224 273 357 231 209 208 181 91 201 187 192 204 207 191 175 195 205 215 218 213 208 207 183 187 178 164 181 184 187 174 167 164 167 169 180 180 162 98 6
140 141 144 162 207 333 164 195 161 168 246 182 213 209 162 111 76 294 168 179 197 201 213 213 206 198 179 190 186 171 172 172 172 191 186 176 165 168 179 189 189 164 98 309
168 38 179 155 181 204 244 177 153 116 275 216 198 176 146 137 141 240 190 184 220 221 206 202 193 182 182 191 163 162 187 175 203 192 181 158 157 168 183 189 197 153 205 286
134 87 213 182 218 284 213 191 168 138 240 167 167 127 145 184 194 175 157 202 212 202 206 192 182 191 203 163 155 187 167 207 194 143 142 149 159 171 174 184 177 159 280 303
159 153 181 123 195 257 147 71 173 183 30 148 162 173 179 187 168 173 182 206 195 209 195 194 189 212 203 166 165 191 204 176 150 148 153 157 159 183 165 171 194 233 271 300
246 191 178 188 202 94 182 130 215 156 138 179 156 187 182 177 198 171 219 234 228 221 215 198 203 218 202 185 185 196 210 153 149 148 153 163 168 178 173 179 211 244 209 283
238 166 178 104 205 203 202 199 172 186 150 164 183 165 167 187 185 207 231 249 245 225 223 202 183 224 239 201 199 210 151 149 146 155 167 171 181 186 194 203 207 214 252 263
179 132 146 54 358 16 255 234 197 221 160 157 167 181 197 189 212 212 227 229 232 232 221 169 198 223 242 177 196 164 152 146 157 163 169 179 182 196 204 220 234 238 225 210
176 153 169 199 194 170 202 209 202 202 203 191 190 210 211 185 216 204 234 223 212 231 203 204 224 227 237 164 160 158 147 153 151 166 176 188 190 200 207 224 264 267 271 276